TimeEST,TemperatureF,Dew PointF,Humidity,Sea Level PressureIn,VisibilityMPH,Wind Direction,Wind SpeedMPH,Gust SpeedMPH,PrecipitationIn,Events,Conditions,WindDirDegrees,DateUTC
12:15 AM,37.4,21.2,52,30.29,10.0,WSW,8.1,-,N/A,,Clear,240,2012-02-04 05:15:00
12:35 AM,37.4,23.0,56,30.29,10.0,SW,9.2,-,N/A,,Clear,220,2012-02-04 05:35:00
12:55 AM,39.2,21.2,49,30.28,10.0,SW,9.2,-,N/A,,Clear,230,2012-02-04 05:55:00
1:15 AM,39.2,21.2,49,30.27,10.0,WSW,8.1,-,N/A,,Clear,240,2012-02-04 06:15:00
1:35 AM,39.2,21.2,49,30.26,10.0,SW,8.1,-,N/A,,Clear,230,2012-02-04 06:35:00
1:55 AM,39.2,21.2,49,30.26,10.0,WSW,9.2,-,N/A,,Clear,240,2012-02-04 06:55:00
2:15 AM,37.4,21.2,52,30.26,10.0,WSW,9.2,-,N/A,,Clear,250,2012-02-04 07:15:00
2:35 AM,39.2,23.0,52,30.26,10.0,WSW,9.2,-,N/A,,Mostly Cloudy,250,2012-02-04 07:35:00
2:55 AM,39.2,23.0,52,30.26,10.0,WSW,9.2,-,N/A,,Mostly Cloudy,250,2012-02-04 07:55:00
3:15 AM,37.4,23.0,56,30.26,10.0,WSW,9.2,-,N/A,,Scattered Clouds,250,2012-02-04 08:15:00
3:35 AM,35.6,23.0,60,30.26,10.0,WSW,10.4,-,N/A,,Scattered Clouds,250,2012-02-04 08:35:00
3:55 AM,37.4,21.2,52,30.25,10.0,West,10.4,-,N/A,,Clear,260,2012-02-04 08:55:00
4:15 AM,39.2,23.0,52,30.24,10.0,West,10.4,-,N/A,,Clear,270,2012-02-04 09:15:00
4:35 AM,39.2,23.0,52,30.24,10.0,West,11.5,-,N/A,,Clear,270,2012-02-04 09:35:00
4:55 AM,39.2,23.0,52,30.23,10.0,West,10.4,-,N/A,,Clear,260,2012-02-04 09:55:00
5:17 AM,39.2,23.0,52,30.23,10.0,West,12.7,-,N/A,,Clear,260,2012-02-04 10:17:00
5:35 AM,39.2,23.0,52,30.22,10.0,West,11.5,18.4,N/A,,Clear,260,2012-02-04 10:35:00
5:55 AM,39.2,24.8,56,30.23,10.0,West,11.5,-,N/A,,Clear,260,2012-02-04 10:55:00
6:15 AM,39.2,24.8,56,30.22,10.0,West,11.5,-,N/A,,Clear,260,2012-02-04 11:15:00
6:35 AM,39.2,24.8,56,30.22,10.0,WSW,11.5,-,N/A,,Scattered Clouds,250,2012-02-04 11:35:00
6:55 AM,39.2,24.8,56,30.22,10.0,WSW,11.5,-,N/A,,Scattered Clouds,250,2012-02-04 11:55:00
7:15 AM,39.2,24.8,56,30.23,10.0,WSW,10.4,-,N/A,,Clear,250,2012-02-04 12:15:00
7:35 AM,39.2,24.8,56,30.24,10.0,WSW,10.4,-,N/A,,Clear,250,2012-02-04 12:35:00
7:55 AM,39.2,24.8,56,30.23,10.0,West,9.2,-,N/A,,Clear,260,2012-02-04 12:55:00
8:15 AM,39.2,24.8,56,30.24,10.0,WSW,10.4,-,N/A,,Scattered Clouds,250,2012-02-04 13:15:00
8:35 AM,41.0,24.8,53,30.23,10.0,WSW,9.2,-,N/A,,Mostly Cloudy,250,2012-02-04 13:35:00
8:55 AM,42.8,24.8,49,30.23,10.0,WSW,8.1,-,N/A,,Mostly Cloudy,250,2012-02-04 13:55:00
9:15 AM,42.8,26.6,53,30.23,10.0,West,6.9,-,N/A,,Mostly Cloudy,260,2012-02-04 14:15:00
9:35 AM,42.8,26.6,53,30.22,10.0,West,6.9,-,N/A,,Mostly Cloudy,260,2012-02-04 14:35:00
9:55 AM,44.6,26.6,49,30.21,10.0,WSW,8.1,-,N/A,,Mostly Cloudy,250,2012-02-04 14:55:00
10:17 AM,44.6,28.4,53,30.21,10.0,WSW,8.1,-,N/A,,Overcast,250,2012-02-04 15:17:00
10:35 AM,46.4,28.4,50,30.21,10.0,WSW,6.9,-,N/A,,Overcast,240,2012-02-04 15:35:00
10:55 AM,48.2,28.4,46,30.20,10.0,WSW,10.4,-,N/A,,Overcast,240,2012-02-04 15:55:00
11:15 AM,46.4,28.4,50,30.19,10.0,SW,8.1,-,N/A,,Overcast,230,2012-02-04 16:15:00
11:55 AM,46.4,28.4,50,30.16,10.0,SW,6.9,-,N/A,,Overcast,230,2012-02-04 16:55:00
12:15 PM,46.4,30.2,53,30.15,10.0,SSW,8.1,-,N/A,,Overcast,210,2012-02-04 17:15:00
12:35 PM,46.4,30.2,53,30.13,10.0,SW,4.6,-,N/A,,Overcast,220,2012-02-04 17:35:00
12:55 PM,46.4,30.2,53,30.12,10.0,SW,5.8,-,N/A,,Overcast,220,2012-02-04 17:55:00
1:15 PM,46.4,30.2,53,30.11,10.0,South,8.1,-,N/A,,Overcast,190,2012-02-04 18:15:00
1:35 PM,44.6,35.6,71,30.09,10.0,SW,5.8,-,N/A,,Drizzle,220,2012-02-04 18:35:00
1:55 PM,44.6,39.2,81,30.08,10.0,SSW,8.1,-,N/A,,Light Drizzle,210,2012-02-04 18:55:00
2:17 PM,42.8,35.6,76,30.08,7.0,South,4.6,-,N/A,Rain,Rain,190,2012-02-04 19:17:00
2:35 PM,39.2,33.8,81,30.07,5.0,Calm,Calm,-,N/A,,Haze,0,2012-02-04 19:35:00
2:55 PM,37.4,30.2,75,30.07,7.0,SE,3.5,-,N/A,Rain,Light Rain,140,2012-02-04 19:55:00
3:15 PM,37.4,33.8,87,30.07,3.0,Calm,Calm,-,N/A,,Drizzle,0,2012-02-04 20:15:00
3:37 PM,35.6,33.8,93,30.06,5.0,ESE,3.5,-,0.02,,Drizzle,110,2012-02-04 20:37:00
3:55 PM,35.6,33.8,93,30.06,3.0,Calm,Calm,-,0.02,Rain,Heavy Rain,0,2012-02-04 20:55:00
4:15 PM,33.8,33.8,100,30.06,1.2,Calm,Calm,-,0.05,Rain,Light Rain,0,2012-02-04 21:15:00
4:36 PM,33.8,33.8,100,30.05,0.8,Calm,Calm,-,0.05,,Heavy Drizzle,0,2012-02-04 21:36:00
4:55 PM,33.8,33.8,100,30.04,1.0,Calm,Calm,-,N/A,,Light Drizzle,0,2012-02-04 21:55:00
5:15 PM,33.8,33.8,100,30.04,0.2,Calm,Calm,-,N/A,Fog,Fog,0,2012-02-04 22:15:00
5:35 PM,35.6,35.6,100,30.04,0.2,Calm,Calm,-,N/A,Fog,Fog,0,2012-02-04 22:35:00
5:55 PM,37.4,37.4,100,30.05,0.2,WSW,4.6,-,N/A,Fog,Fog,240,2012-02-04 22:55:00
6:15 PM,37.4,37.4,100,30.05,0.2,WSW,4.6,-,N/A,,Drizzle,240,2012-02-04 23:15:00
6:35 PM,39.2,39.2,100,30.05,0.5,WSW,8.1,-,0.01,,Light Drizzle,240,2012-02-04 23:35:00
6:57 PM,39.2,39.2,100,30.05,0.2,WSW,10.4,-,N/A,Rain,Rain,240,2012-02-04 23:57:00
7:15 PM,39.2,39.2,100,30.04,0.2,WSW,11.5,-,N/A,Fog,Fog,240,2012-02-05 00:15:00
7:35 PM,39.2,39.2,100,30.04,0.2,WSW,12.7,-,N/A,Fog,Fog,240,2012-02-05 00:35:00
7:55 PM,39.2,39.2,100,30.04,0.2,WSW,11.5,-,N/A,,Light Drizzle,240,2012-02-05 00:55:00
8:15 PM,39.2,39.2,100,30.05,0.2,WSW,10.4,-,N/A,,Drizzle,240,2012-02-05 01:15:00
8:35 PM,39.2,39.2,100,30.05,0.2,WSW,11.5,-,N/A,Rain,Rain,240,2012-02-05 01:35:00
8:55 PM,39.2,39.2,100,30.04,0.2,WSW,11.5,-,N/A,Rain,Light Rain,240,2012-02-05 01:55:00
9:15 PM,41.0,41.0,100,30.04,0.2,WSW,11.5,-,N/A,,Unknown,240,2012-02-05 02:15:00
9:37 PM,41.0,41.0,100,30.04,0.2,WSW,9.2,-,N/A,Fog,Fog,240,2012-02-05 02:37:00
9:55 PM,39.2,39.2,100,30.03,0.2,SW,5.8,-,N/A,,Unknown,230,2012-02-05 02:55:00
10:15 PM,41.0,41.0,100,30.03,0.2,SW,10.4,-,N/A,,Overcast,230,2012-02-05 03:15:00
10:35 PM,41.0,41.0,100,30.02,0.2,SW,8.1,-,N/A,,Overcast,220,2012-02-05 03:35:00
10:55 PM,41.0,41.0,100,30.02,0.2,SW,6.9,-,N/A,Rain,Light Rain,230,2012-02-05 03:55:00
11:17 PM,35.6,35.6,100,30.01,0.2,South,3.5,-,N/A,,Overcast,170,2012-02-05 04:17:00
11:38 PM,37.4,37.4,100,30.01,0.2,SW,9.2,-,0.01,Snow,Snow,230,2012-02-05 04:38:00
11:55 PM,41.0,41.0,100,30.00,0.2,SW,8.1,-,N/A,,Drizzle,220,2012-02-05 04:55:00